Location: Grand Moustoir
(47.8355°N, 3.3120°W)
Time: 15:43:50
(UTC+00:00)

NOSS 2-2 (C) - Pass Details

Date: 20 January 2020
Orbit: 484 x 1725 km, 63.3° (Epoch: 03 February)

Event Time Altitude Azimuth Distance (km) Brightness Sun altitude
Exits shadow 05:49:07 55° 217° (SW) 610 3.3 -20.6°
Maximum altitude 05:49:52 88° 138° (SE) 520 3.1 -20.5°
Drops below altitude 10° 05:54:00 10° 41° (NE) 1,908 6.5 -19.8°
Sets 05:56:28 0° 41° (NE) 2,953 7.5 -19.4°
